Location: Briarwood
(39.0812°N, 76.8511°W)
Time: 22:02:55
(UTC+00:00)

Cosmos 1725 Rocket - Pass Details

Date: 10 September 2024
Orbit: 961 x 989 km, 82.9° (Epoch: 06 October)

Event Time Altitude Azimuth Distance (km) Brightness Sun altitude
Rises 23:41:59 0° 184° (S) 3,637 6.9 -4.5°
Reaches altitude 10° 23:44:28 10° 184° (S) 2,692 6.3 -5.0°
Maximum altitude 23:50:38 88° 96° (E) 968 4.0 -6.2°
Drops below altitude 10° 23:56:50 10° 7° (N) 2,705 6.4 -7.3°
Sets 23:59:21 0° 8° (N) 3,656 7.1 -7.8°
